STARLINK-32891, 62927

Orbit data source: Space-Track

STARLINK-32891, 62927 is a payload satellite owned by SpaceX/Seattle (US) in LEO that was launched on Sat, 08 Feb 2025 UTC via an FALCON 9 launch vehicle from the Air Force Eastern Test Range (AFETR). Payload-class satellites include a variety of spacecraft equipped with specific instruments for various scientific and technological missions. These include communications satellites like Starlink; space stations such as the ISS; scientific satellites like the Hubble; Earth observation satellites from companies like Planet Labs, Umbra, and HawkEye 360; GPS; miniature CubeSats for education and research; and military/defense satellites.

Loading next visibility...
Identifier
62927, 2025-027W
Orbit
LEO
Country
Flag of USUS
Related business
Manufacturer
SpaceX/Seattle
Mission
Operational Commercial Communications
Bus & Motor
STARLINK V2M, Unknown motor
Mass
730 kg wet, ~700 kg dry
Launch date (UTC)
2025-02-08 (1 year ago)
Launch vehicle
FALCON 9
Launch site
Air Force Eastern Test Range (AFETR)
Object type
Payload
Rocket body
Debris
Shape & HBR
Box + 2 Pan, 17.7 m
Radar Cross Section
33.884 m², Large (>1 m²)

Expand to show TLE details & history
Last TLE update: 9 hours ago

TLE from 9 hours ago
0 STARLINK-32891
1 62927U 25027W   26122.46429479  .00016807  00000-0  61909-3 0  9990
2 62927  42.9971 185.4174 0001304 263.9043  96.1660 15.27567988 69882
Epoch: 2026-05-02T11:08Z
TLE epoch observation values (Epoch: 2026-05-02T11:08:35.069Z)
Latitude
-0.00004°
Longitude
157.88942°
Altitude
482.956 km
Speed
7.626 km/s
True Right ascension
12h 21m 40s
True Declination
0° 00' 00"
Sunlit
Object was in full shadow at epoch
Visualization orbit readout
Latitude
Unknown
Longitude
Unknown
Altitude
Unknown
Speed
Unknown
Apparent Right ascension
Unknown
Apparent Declination
Unknown
Sunlit
N/A
Visualization observer readout
Local Sidereal Time
03:54:29
Azimuth
Unknown
Elevation
Unknown
Doppler factor
Unknown
Orbital elements
Apogee altitude
485.926 km
Perigee altitude
484.136 km
Semi-major axis
6,863.168 km
Eccentricity
0.00013
Inclination
42.9971°
RAAN
185.4174°
Arg. of periapsis
263.9043°
True anomaly
96.18086°
Mean anomaly
96.166°
Eccentric anomaly
96.17343°
Mean motion
3.8173 °/min
Orbital period
94.31 mins
BSTAR
0.00061909
Loading maneuver chart data...
Computing Atmospheric mass density...
Loading historical data...
Loading historical data...
Loading historical data...
Loading historical data...
Loading historical data...
Loading historical data...
Loading historical data...

Documentation

Showing up to 5 results
|